UAL404 KIAH-KEWR

Flight info

Callsign UAL404
Flight time N/A
Altitude 31000
Route LURIC8 HAWES SUTTN J29 CARIN MEMFS Q29 DORET J584 SLT FQM3
Aircraft A21N/M-SDE2E3FGHIRWXY/LB1

Departure

Time 2026-05-03 23:56
Airport George Bush Intercontinental Airport (KIAH)

Arrival

Time N/A
Airport Newark Liberty International Airport (KEWR)
Time Latitude Longitude Altitude Speed Heading
2026-05-03 23:16 29.98532 -95.33696 113 ft 0 kts
2026-05-03 23:44 29.98512 -95.33697 110 ft 4 kts
2026-05-03 23:44 29.98486 -95.33703 111 ft 4 kts 18°
2026-05-03 23:44 29.98461 -95.33714 111 ft 4 kts 18°
2026-05-03 23:45 29.98436 -95.33720 112 ft 3 kts 360°
2026-05-03 23:45 29.98411 -95.33716 110 ft 4 kts 334°
2026-05-03 23:45 29.98396 -95.33699 111 ft 4 kts 274°
2026-05-03 23:45 29.98404 -95.33675 111 ft 4 kts 221°
2026-05-03 23:46 29.98425 -95.33665 110 ft 4 kts 180°
2026-05-03 23:46 29.98444 -95.33665 112 ft 0 kts 180°
2026-05-03 23:48 29.98442 -95.33666 112 ft 1 kts 185°
2026-05-03 23:49 29.98423 -95.33673 112 ft 4 kts 199°
2026-05-03 23:49 29.98385 -95.33689 112 ft 7 kts 195°
2026-05-03 23:49 29.98328 -95.33709 112 ft 10 kts 223°
2026-05-03 23:49 29.98314 -95.33800 112 ft 13 kts 270°
2026-05-03 23:50 29.98316 -95.33919 112 ft 16 kts 272°
2026-05-03 23:50 29.98327 -95.34008 111 ft 18 kts 292°
2026-05-03 23:50 29.98373 -95.34150 113 ft 14 kts 271°
2026-05-03 23:50 29.98375 -95.34266 113 ft 15 kts 271°
2026-05-03 23:51 29.98376 -95.34384 112 ft 15 kts 270°
2026-05-03 23:51 29.98377 -95.34509 112 ft 16 kts 270°
2026-05-03 23:51 29.98378 -95.34639 112 ft 16 kts 270°
2026-05-03 23:51 29.98379 -95.34770 112 ft 17 kts 270°
2026-05-03 23:52 29.98379 -95.34908 112 ft 17 kts 270°
2026-05-03 23:52 29.98380 -95.35048 112 ft 18 kts 270°
2026-05-03 23:52 29.98381 -95.35171 112 ft 6 kts 272°
2026-05-03 23:52 29.98407 -95.35217 112 ft 8 kts 329°
2026-05-03 23:53 29.98460 -95.35250 112 ft 10 kts 332°
2026-05-03 23:53 29.98523 -95.35288 112 ft 11 kts 332°
2026-05-03 23:53 29.98602 -95.35335 112 ft 13 kts 332°
2026-05-03 23:53 29.98685 -95.35388 112 ft 14 kts 331°
2026-05-03 23:54 29.98774 -95.35444 112 ft 15 kts 331°
2026-05-03 23:54 29.98869 -95.35504 112 ft 16 kts 323°
2026-05-03 23:54 29.98860 -95.35622 112 ft 17 kts 238°
2026-05-03 23:54 29.98808 -95.35719 113 ft 13 kts 239°
2026-05-03 23:55 29.98734 -95.35752 114 ft 14 kts 154°
2026-05-03 23:55 29.98527 -95.35627 113 ft 66 kts 152°
2026-05-03 23:55 29.97918 -95.35254 115 ft 129 kts 152°
2026-05-03 23:55 29.96981 -95.34677 143 ft 170 kts 152°
2026-05-03 23:56 29.96024 -95.34080 941 ft 150 kts 150°
2026-05-03 23:56 29.95071 -95.33413 1174 ft 169 kts 148°
2026-05-03 23:56 29.94057 -95.32620 1507 ft 186 kts 147°
2026-05-03 23:56 29.92954 -95.31743 1809 ft 205 kts 146°
2026-05-03 23:57 29.91995 -95.30480 2187 ft 225 kts 118°
2026-05-03 23:57 29.91583 -95.28640 2414 ft 252 kts 92°
2026-05-03 23:57 29.91769 -95.26564 2901 ft 264 kts 83°
2026-05-03 23:57 29.92118 -95.24504 3704 ft 267 kts 72°
2026-05-03 23:58 29.92658 -95.23204 4215 ft 267 kts 55°
2026-05-03 23:58 29.94535 -95.21419 5259 ft 267 kts 21°
2026-05-03 23:58 29.96322 -95.20832 6023 ft 268 kts 12°
2026-05-03 23:58 29.97566 -95.20531 6524 ft 270 kts 12°
2026-05-03 23:59 29.99397 -95.20084 7198 ft 273 kts 12°
2026-05-03 23:59 30.01270 -95.19602 7865 ft 276 kts 13°
2026-05-03 23:59 30.03070 -95.19113 8445 ft 281 kts 13°
2026-05-03 23:59 30.04992 -95.18584 9084 ft 285 kts 13°
2026-05-04 00:00 30.06935 -95.18046 9765 ft 287 kts 13°
2026-05-04 00:00 30.08858 -95.17510 10371 ft 291 kts 13°
2026-05-04 00:00 30.10884 -95.16943 10680 ft 306 kts 12°
2026-05-04 00:00 30.13010 -95.16344 10918 ft 323 kts 13°
2026-05-04 00:01 30.15251 -95.15709 11145 ft 340 kts 13°
2026-05-04 00:01 30.17585 -95.15050 11358 ft 356 kts 12°
2026-05-04 00:01 30.20055 -95.14356 11568 ft 372 kts 13°
2026-05-04 00:01 30.22637 -95.13627 11780 ft 387 kts 13°
2026-05-04 00:02 30.25209 -95.12635 11964 ft 401 kts 24°
2026-05-04 00:02 30.27631 -95.10953 12312 ft 409 kts 33°
2026-05-04 00:02 30.29973 -95.09057 12770 ft 412 kts 34°
2026-05-04 00:02 30.32328 -95.07136 13252 ft 415 kts 33°
2026-05-04 00:03 30.34679 -95.05231 13745 ft 418 kts 33°
2026-05-04 00:03 30.37087 -95.03286 14188 ft 421 kts 33°
2026-05-04 00:03 30.39503 -95.01344 14608 ft 423 kts 32°
2026-05-04 00:03 30.41927 -94.99457 15069 ft 425 kts 31°
2026-05-04 00:04 30.44408 -94.97561 15567 ft 428 kts 31°
2026-05-04 00:04 30.46905 -94.95652 16059 ft 430 kts 30°
2026-05-04 00:04 30.49426 -94.93725 16556 ft 433 kts 30°
2026-05-04 00:04 30.51924 -94.91812 17020 ft 435 kts 30°
2026-05-04 00:05 30.54464 -94.89865 17488 ft 437 kts 30°
2026-05-04 00:05 30.57015 -94.87909 17942 ft 440 kts 30°
2026-05-04 00:05 30.59579 -94.85941 18384 ft 443 kts 30°
2026-05-04 00:05 30.62127 -94.83982 18755 ft 445 kts 29°
2026-05-04 00:06 30.64728 -94.81980 19120 ft 448 kts 29°
2026-05-04 00:06 30.67339 -94.79971 19470 ft 451 kts 29°
2026-05-04 00:06 30.69964 -94.77952 19827 ft 454 kts 29°
2026-05-04 00:06 30.72610 -94.75916 20191 ft 456 kts 28°
2026-05-04 00:07 30.75232 -94.73897 20531 ft 459 kts 28°
2026-05-04 00:07 30.77909 -94.71832 20891 ft 462 kts 28°
2026-05-04 00:07 30.80603 -94.69751 21294 ft 465 kts 28°
2026-05-04 00:07 30.83307 -94.67661 21698 ft 468 kts 28°
2026-05-04 00:08 30.86031 -94.65555 22091 ft 471 kts 28°
2026-05-04 00:08 30.88769 -94.63436 22517 ft 473 kts 28°
2026-05-04 00:08 30.91515 -94.61307 22908 ft 475 kts 28°
2026-05-04 00:08 30.94245 -94.59187 23261 ft 478 kts 27°
2026-05-04 00:09 30.97027 -94.57039 23616 ft 480 kts 27°
2026-05-04 00:09 30.99818 -94.54875 23999 ft 480 kts 27°
2026-05-04 00:09 31.02600 -94.52716 24401 ft 478 kts 27°
2026-05-04 00:09 31.05365 -94.50572 24795 ft 477 kts 27°
2026-05-04 00:10 31.08123 -94.48432 25176 ft 476 kts 26°
2026-05-04 00:10 31.10882 -94.46291 25544 ft 475 kts 26°
2026-05-04 00:10 31.13596 -94.44182 25925 ft 474 kts 26°
2026-05-04 00:10 31.16338 -94.42045 26306 ft 473 kts 26°
2026-05-04 00:11 31.19077 -94.39915 26733 ft 471 kts 26°
2026-05-04 00:11 31.21812 -94.37785 27147 ft 469 kts 25°
2026-05-04 00:11 31.24524 -94.35667 27525 ft 468 kts 25°
2026-05-04 00:11 31.27192 -94.33576 27882 ft 467 kts 25°
2026-05-04 00:12 31.29896 -94.31470 28241 ft 466 kts 25°
2026-05-04 00:12 31.32593 -94.29364 28601 ft 465 kts 25°
2026-05-04 00:12 31.35282 -94.27260 28963 ft 464 kts 24°
2026-05-04 00:12 31.37970 -94.25157 29311 ft 463 kts 24°
2026-05-04 00:13 31.40645 -94.23064 29649 ft 462 kts 24°
2026-05-04 00:13 31.43284 -94.20998 29972 ft 461 kts 24°
2026-05-04 00:13 31.45950 -94.18904 30340 ft 460 kts 24°
2026-05-04 00:13 31.48613 -94.16814 30576 ft 460 kts 24°
2026-05-04 00:14 31.51277 -94.14724 30821 ft 459 kts 24°
2026-05-04 00:14 31.53931 -94.12636 31057 ft 459 kts 24°
2026-05-04 00:14 31.59210 -94.08473 31157 ft 458 kts 24°
2026-05-04 00:15 31.64509 -94.04304 31141 ft 458 kts 24°
2026-05-04 00:15 31.69770 -94.00154 31135 ft 458 kts 24°
2026-05-04 00:16 31.75069 -93.95972 31160 ft 458 kts 24°
2026-05-04 00:16 31.80247 -93.91641 31130 ft 462 kts 28°
2026-05-04 00:17 31.85334 -93.86994 31126 ft 463 kts 28°
2026-05-04 00:17 31.90422 -93.82329 31126 ft 463 kts 28°
2026-05-04 00:18 31.95488 -93.77698 31125 ft 463 kts 29°
2026-05-04 00:18 32.00583 -93.73031 31119 ft 463 kts 29°
2026-05-04 00:19 32.05669 -93.68362 31124 ft 463 kts 30°
2026-05-04 00:19 32.10725 -93.63718 31112 ft 463 kts 30°
2026-05-04 00:20 32.15807 -93.59039 31120 ft 463 kts 30°
2026-05-04 00:20 32.20884 -93.54357 31105 ft 463 kts 30°
2026-05-04 00:21 32.25938 -93.49700 31115 ft 463 kts 30°
2026-05-04 00:21 32.31006 -93.44973 31127 ft 463 kts 30°
2026-05-04 00:22 32.36074 -93.40253 31100 ft 463 kts 30°
2026-05-04 00:22 32.41152 -93.35542 31111 ft 463 kts 30°
2026-05-04 00:23 32.46198 -93.30833 31102 ft 464 kts 30°
2026-05-04 00:23 32.51281 -93.26107 31097 ft 464 kts 30°
2026-05-04 00:24 32.56385 -93.21406 31098 ft 464 kts 30°
2026-05-04 00:24 32.61468 -93.16713 31109 ft 465 kts 31°
2026-05-04 00:25 32.66538 -93.11979 31100 ft 465 kts 31°
2026-05-04 00:25 32.71621 -93.07216 31098 ft 464 kts 31°
2026-05-04 00:26 32.76697 -93.02468 31107 ft 462 kts 31°
2026-05-04 00:26 32.81765 -92.97714 31094 ft 463 kts 31°
2026-05-04 00:27 32.86790 -92.92989 31106 ft 463 kts 31°
2026-05-04 00:27 32.91851 -92.88237 31094 ft 463 kts 31°
2026-05-04 00:28 32.96932 -92.83508 31090 ft 461 kts 29°
2026-05-04 00:28 33.02074 -92.79019 31088 ft 461 kts 29°
2026-05-04 00:29 33.07258 -92.74507 31089 ft 461 kts 29°
2026-05-04 00:29 33.12431 -92.69983 31090 ft 461 kts 30°
2026-05-04 00:30 33.17582 -92.65409 31101 ft 460 kts 30°
2026-05-04 00:30 33.22702 -92.60904 31090 ft 460 kts 29°
2026-05-04 00:31 33.27887 -92.56406 31089 ft 460 kts 30°
2026-05-04 00:31 33.33064 -92.51888 31086 ft 460 kts 29°
2026-05-04 00:32 33.38231 -92.47356 31082 ft 460 kts 29°
2026-05-04 00:32 33.43395 -92.42819 31076 ft 461 kts 30°
2026-05-04 00:33 33.50942 -92.35722 31070 ft 470 kts 40°
2026-05-04 00:34 33.55087 -92.29564 31075 ft 475 kts 45°
2026-05-04 00:34 33.59143 -92.23382 31081 ft 473 kts 45°
2026-05-04 00:35 33.63210 -92.17152 31076 ft 474 kts 46°
2026-05-04 00:35 33.67266 -92.10919 31082 ft 474 kts 46°
2026-05-04 00:36 33.71321 -92.04678 31069 ft 474 kts 46°
2026-05-04 00:36 33.75358 -91.98458 31071 ft 474 kts 46°
2026-05-04 00:37 33.79420 -91.92179 31070 ft 474 kts 46°
2026-05-04 00:37 33.83443 -91.85958 31074 ft 473 kts 46°
2026-05-04 00:38 33.87482 -91.79708 31070 ft 473 kts 46°
2026-05-04 00:38 33.91524 -91.73419 31067 ft 473 kts 46°
2026-05-04 00:39 33.95536 -91.67186 31085 ft 473 kts 46°
2026-05-04 00:39 33.99575 -91.60905 31081 ft 474 kts 46°
2026-05-04 00:40 34.03602 -91.54609 31075 ft 473 kts 46°
2026-05-04 00:40 34.07615 -91.48320 31085 ft 472 kts 46°
2026-05-04 00:41 34.11634 -91.42044 31081 ft 472 kts 46°
2026-05-04 00:41 34.15616 -91.35803 31081 ft 472 kts 46°
2026-05-04 00:42 34.19630 -91.29484 31083 ft 472 kts 46°
2026-05-04 00:42 34.23641 -91.23180 31083 ft 473 kts 46°
2026-05-04 00:43 34.27622 -91.16896 31078 ft 473 kts 46°
2026-05-04 00:43 34.31634 -91.10559 31076 ft 472 kts 46°
2026-05-04 00:44 34.35603 -91.04271 31066 ft 472 kts 46°
2026-05-04 00:44 34.39589 -90.97933 31069 ft 472 kts 46°
2026-05-04 00:45 34.43574 -90.91593 31067 ft 473 kts 47°
2026-05-04 00:45 34.47505 -90.85269 31088 ft 472 kts 47°
2026-05-04 00:46 34.51493 -90.78924 31071 ft 472 kts 47°
2026-05-04 00:46 34.54814 -90.73659 31075 ft 471 kts 46°
2026-05-04 00:47 34.59404 -90.66270 31065 ft 471 kts 47°
2026-05-04 00:47 34.62700 -90.60978 31062 ft 471 kts 47°
2026-05-04 00:48 34.66667 -90.54638 31075 ft 471 kts 47°
2026-05-04 00:48 34.70612 -90.48261 31058 ft 471 kts 47°
2026-05-04 00:49 34.74536 -90.41928 31072 ft 471 kts 47°
2026-05-04 00:49 34.78504 -90.35564 31071 ft 470 kts 46°
2026-05-04 00:50 34.82481 -90.29225 31061 ft 470 kts 47°
2026-05-04 00:50 34.86395 -90.22893 31059 ft 470 kts 47°
2026-05-04 00:51 34.90336 -90.16506 31054 ft 471 kts 47°
2026-05-04 00:51 34.94266 -90.10102 31057 ft 471 kts 47°
2026-05-04 00:52 34.98168 -90.03749 31060 ft 471 kts 47°
2026-05-04 00:52 35.02341 -89.97648 31077 ft 460 kts 35°
2026-05-04 00:53 35.07401 -89.92986 31073 ft 454 kts 29°